RUK973 LIMJ-EGSS

Flight info

Callsign RUK973
Flight time 1h 56m
Altitude 36000
Route LAGEN DCT NEDED DCT TOP DCT AOSTA DCT ORSUD DCT MOLUS DCT IBODI DCT GOTED DCT TRO DCT CLM DCT KOPOR DCT SOSUN DCT SUBIP UM733 BANVA
Aircraft B738/M-SDE2E3FGHIRWXY/LB1

Departure

Time 2026-04-15 06:16
Airport Genoa Cristoforo Colombo Airport (LIMJ)

Arrival

Time 2026-04-15 08:13
Airport London Stansted Airport (EGSS)
Time Latitude Longitude Altitude Speed Heading
2026-04-15 05:39 44.41448 8.84814 17 ft 0 kts 105°
2026-04-15 06:10 44.41441 8.84824 19 ft 2 kts 148°
2026-04-15 06:10 44.41427 8.84817 17 ft 2 kts 210°
2026-04-15 06:10 44.41407 8.84804 19 ft 5 kts 204°
2026-04-15 06:10 44.41391 8.84753 17 ft 8 kts 279°
2026-04-15 06:11 44.41406 8.84669 17 ft 9 kts 285°
2026-04-15 06:11 44.41410 8.84585 19 ft 9 kts 246°
2026-04-15 06:11 44.41374 8.84516 17 ft 9 kts 232°
2026-04-15 06:11 44.41338 8.84451 17 ft 8 kts 233°
2026-04-15 06:12 44.41313 8.84379 18 ft 9 kts 272°
2026-04-15 06:12 44.41334 8.84264 16 ft 16 kts 285°
2026-04-15 06:12 44.41371 8.84079 16 ft 22 kts 285°
2026-04-15 06:12 44.41411 8.83875 18 ft 21 kts 285°
2026-04-15 06:13 44.41450 8.83677 19 ft 21 kts 286°
2026-04-15 06:13 44.41487 8.83484 23 ft 20 kts 285°
2026-04-15 06:13 44.41523 8.83297 23 ft 20 kts 285°
2026-04-15 06:13 44.41560 8.83114 26 ft 20 kts 285°
2026-04-15 06:14 44.41600 8.82906 19 ft 23 kts 285°
2026-04-15 06:14 44.41630 8.82757 19 ft 14 kts 285°
2026-04-15 06:14 44.41655 8.82629 16 ft 13 kts 285°
2026-04-15 06:14 44.41655 8.82528 18 ft 11 kts 233°
2026-04-15 06:15 44.41588 8.82492 14 ft 9 kts 195°
2026-04-15 06:15 44.41543 8.82476 14 ft 6 kts 184°
2026-04-15 06:15 44.41522 8.82526 15 ft 7 kts 105°
2026-04-15 06:15 44.41484 8.82717 20 ft 48 kts 105°
2026-04-15 06:16 44.41338 8.83465 23 ft 109 kts 104°
2026-04-15 06:16 44.41098 8.84719 55 ft 153 kts 103°
2026-04-15 06:16 44.40784 8.86161 561 ft 157 kts 105°
2026-04-15 06:16 44.40452 8.87667 1001 ft 167 kts 105°
2026-04-15 06:17 44.39854 8.89073 1467 ft 184 kts 137°
2026-04-15 06:17 44.38631 8.89754 1844 ft 199 kts 180°
2026-04-15 06:17 44.37327 8.89107 2239 ft 208 kts 224°
2026-04-15 06:17 44.36420 8.87563 2918 ft 200 kts 235°
2026-04-15 06:18 44.35528 8.86050 3478 ft 206 kts 230°
2026-04-15 06:18 44.34564 8.84584 4076 ft 208 kts 227°
2026-04-15 06:18 44.33560 8.83077 4609 ft 213 kts 223°
2026-04-15 06:18 44.32305 8.82028 5131 ft 211 kts 191°
2026-04-15 06:19 44.30836 8.81780 5551 ft 216 kts 180°
2026-04-15 06:19 44.29325 8.81662 6050 ft 218 kts 180°
2026-04-15 06:19 44.27807 8.81547 6582 ft 218 kts 181°
2026-04-15 06:19 44.26270 8.81425 6987 ft 225 kts 180°
2026-04-15 06:20 44.24726 8.81302 7473 ft 226 kts 181°
2026-04-15 06:20 44.23159 8.81177 8004 ft 226 kts 181°
2026-04-15 06:20 44.21584 8.81045 8495 ft 230 kts 180°
2026-04-15 06:20 44.19992 8.80912 9059 ft 229 kts 180°
2026-04-15 06:21 44.18382 8.80777 9517 ft 233 kts 181°
2026-04-15 06:21 44.16760 8.80640 10053 ft 233 kts 180°
2026-04-15 06:21 44.15144 8.80505 10596 ft 231 kts 181°
2026-04-15 06:21 44.13525 8.80366 11053 ft 234 kts 181°
2026-04-15 06:22 44.11912 8.79726 11207 ft 254 kts 216°
2026-04-15 06:22 44.10785 8.77828 11391 ft 269 kts 249°
2026-04-15 06:22 44.10479 8.75220 11669 ft 281 kts 279°
2026-04-15 06:22 44.11094 8.72681 12273 ft 277 kts 308°
2026-04-15 06:23 44.12476 8.70921 12971 ft 268 kts 341°
2026-04-15 06:23 44.14282 8.70532 13588 ft 267 kts 10°
2026-04-15 06:23 44.16065 8.71102 14384 ft 262 kts 15°
2026-04-15 06:23 44.17827 8.71715 15121 ft 261 kts 15°
2026-04-15 06:24 44.19661 8.71992 15565 ft 275 kts 351°
2026-04-15 06:24 44.21450 8.70990 16188 ft 280 kts 330°
2026-04-15 06:24 44.23012 8.69366 17020 ft 280 kts 325°
2026-04-15 06:24 44.24507 8.67593 17634 ft 287 kts 322°
2026-04-15 06:25 44.26024 8.65740 18217 ft 292 kts 322°
2026-04-15 06:25 44.27557 8.63877 18932 ft 290 kts 324°
2026-04-15 06:25 44.29084 8.62046 19587 ft 291 kts 323°
2026-04-15 06:25 44.30658 8.60177 19935 ft 302 kts 322°
2026-04-15 06:26 44.32274 8.58261 20489 ft 306 kts 322°
2026-04-15 06:26 44.33876 8.56363 21128 ft 306 kts 322°
2026-04-15 06:26 44.35508 8.54433 21699 ft 309 kts 322°
2026-04-15 06:26 44.37163 8.52477 22245 ft 313 kts 322°
2026-04-15 06:27 44.38829 8.50506 22818 ft 316 kts 322°
2026-04-15 06:27 44.40521 8.48505 23213 ft 325 kts 322°
2026-04-15 06:27 44.42297 8.46405 23333 ft 342 kts 322°
2026-04-15 06:27 44.44159 8.44200 23459 ft 358 kts 322°
2026-04-15 06:28 44.46102 8.41895 23606 ft 373 kts 322°
2026-04-15 06:28 44.48116 8.39501 23717 ft 388 kts 322°
2026-04-15 06:28 44.50209 8.37011 23800 ft 401 kts 322°
2026-04-15 06:28 44.52370 8.34436 23947 ft 412 kts 322°
2026-04-15 06:29 44.54558 8.31823 24400 ft 413 kts 322°
2026-04-15 06:29 44.56744 8.29209 24923 ft 413 kts 322°
2026-04-15 06:29 44.58936 8.26587 25384 ft 414 kts 323°
2026-04-15 06:29 44.61136 8.23956 25801 ft 416 kts 323°
2026-04-15 06:30 44.63347 8.21308 26212 ft 418 kts 323°
2026-04-15 06:30 44.65534 8.18687 26628 ft 420 kts 323°
2026-04-15 06:30 44.67760 8.16017 27049 ft 421 kts 324°
2026-04-15 06:30 44.69990 8.13340 27461 ft 422 kts 324°
2026-04-15 06:31 44.72230 8.10652 27839 ft 424 kts 324°
2026-04-15 06:31 44.74480 8.07954 28217 ft 426 kts 324°
2026-04-15 06:31 44.76735 8.05246 28599 ft 427 kts 325°
2026-04-15 06:31 44.79000 8.02523 28980 ft 428 kts 325°
2026-04-15 06:32 44.81265 7.99795 29373 ft 429 kts 325°
2026-04-15 06:32 44.83527 7.97065 29989 ft 423 kts 326°
2026-04-15 06:32 44.85745 7.94383 30654 ft 416 kts 326°
2026-04-15 06:32 44.87934 7.91738 31088 ft 414 kts 327°
2026-04-15 06:33 44.90129 7.89088 31393 ft 415 kts 327°
2026-04-15 06:33 44.92413 7.86643 31688 ft 409 kts 334°
2026-04-15 06:33 44.94867 7.84712 32094 ft 399 kts 342°
2026-04-15 06:33 44.97418 7.83228 32555 ft 394 kts 343°
2026-04-15 06:34 44.99919 7.81797 32955 ft 392 kts 343°
2026-04-15 06:34 45.02446 7.80347 33313 ft 392 kts 343°
2026-04-15 06:34 45.04965 7.78892 33655 ft 391 kts 343°
2026-04-15 06:34 45.07476 7.77433 34037 ft 388 kts 343°
2026-04-15 06:35 45.09970 7.75977 34371 ft 387 kts 343°
2026-04-15 06:35 45.12464 7.74518 34574 ft 388 kts 343°
2026-04-15 06:35 45.14964 7.73053 34770 ft 390 kts 343°
2026-04-15 06:35 45.17474 7.71579 35010 ft 390 kts 343°
2026-04-15 06:36 45.19980 7.70105 35224 ft 390 kts 342°
2026-04-15 06:36 45.22478 7.68633 35504 ft 389 kts 342°
2026-04-15 06:36 45.24976 7.67160 35714 ft 389 kts 342°
2026-04-15 06:36 45.27478 7.65685 35913 ft 390 kts 342°
2026-04-15 06:37 45.29987 7.64203 36112 ft 386 kts 343°
2026-04-15 06:37 45.32520 7.62833 34822 ft 388 kts 346°
2026-04-15 06:37 45.35000 7.61532 35558 ft 380 kts 343°
2026-04-15 06:38 45.39908 7.58525 35738 ft 385 kts 341°
2026-04-15 06:38 45.42364 7.56986 35854 ft 387 kts 341°
2026-04-15 06:38 45.44821 7.55456 35937 ft 383 kts 341°
2026-04-15 06:38 45.47275 7.53966 36114 ft 384 kts 342°
2026-04-15 06:39 45.49748 7.52486 36154 ft 387 kts 342°
2026-04-15 06:39 45.54716 7.49521 36163 ft 391 kts 342°
2026-04-15 06:40 45.59795 7.46493 36158 ft 398 kts 342°
2026-04-15 06:40 45.64851 7.43460 36121 ft 389 kts 342°
2026-04-15 06:41 45.69827 7.40479 36147 ft 387 kts 342°
2026-04-15 06:41 45.74797 7.37499 36164 ft 388 kts 341°
2026-04-15 06:42 45.79748 7.34379 36177 ft 392 kts 336°
2026-04-15 06:42 45.84298 7.29935 36184 ft 397 kts 330°
2026-04-15 06:43 45.88789 7.25301 36153 ft 397 kts 330°
2026-04-15 06:43 45.93262 7.20735 36155 ft 396 kts 330°
2026-04-15 06:44 45.97760 7.16145 36173 ft 396 kts 330°
2026-04-15 06:44 46.02257 7.11543 36173 ft 395 kts 329°
2026-04-15 06:45 46.06735 7.06948 36191 ft 395 kts 329°
2026-04-15 06:45 46.10460 7.03121 36190 ft 395 kts 329°
2026-04-15 06:46 46.15691 6.97734 36199 ft 396 kts 329°
2026-04-15 06:46 46.19419 6.93887 36189 ft 396 kts 329°
2026-04-15 06:47 46.23900 6.89253 36184 ft 396 kts 329°
2026-04-15 06:47 46.28358 6.84633 36176 ft 394 kts 329°
2026-04-15 06:48 46.32795 6.80027 36168 ft 391 kts 329°
2026-04-15 06:48 46.37214 6.75430 36194 ft 391 kts 328°
2026-04-15 06:49 46.41635 6.70823 36197 ft 392 kts 328°
2026-04-15 06:49 46.45892 6.65823 36202 ft 398 kts 319°
2026-04-15 06:50 46.51618 6.57085 36204 ft 398 kts 319°
2026-04-15 06:50 46.55412 6.51297 36210 ft 398 kts 319°
2026-04-15 06:51 46.59241 6.45474 36183 ft 398 kts 319°
2026-04-15 06:51 46.63069 6.39649 36197 ft 398 kts 319°
2026-04-15 06:52 46.66896 6.33815 36212 ft 399 kts 319°
2026-04-15 06:52 46.70728 6.27959 36209 ft 399 kts 319°
2026-04-15 06:53 46.74563 6.22086 36197 ft 400 kts 319°
2026-04-15 06:53 46.78402 6.16193 36212 ft 401 kts 319°
2026-04-15 06:54 46.82252 6.10271 36176 ft 402 kts 318°
2026-04-15 06:54 46.86094 6.04346 36201 ft 402 kts 318°
2026-04-15 06:55 46.89913 5.98446 36206 ft 402 kts 318°
2026-04-15 06:55 46.93762 5.92506 36204 ft 401 kts 320°
2026-04-15 06:56 46.98180 5.87725 36206 ft 392 kts 335°
2026-04-15 06:56 47.03032 5.84053 36207 ft 392 kts 335°
2026-04-15 06:57 47.07888 5.80364 36205 ft 392 kts 335°
2026-04-15 06:57 47.12733 5.76645 36191 ft 393 kts 334°
2026-04-15 06:58 47.17542 5.72933 36207 ft 393 kts 334°
2026-04-15 06:58 47.22385 5.69184 36218 ft 393 kts 334°
2026-04-15 06:59 47.27236 5.65422 36217 ft 394 kts 334°
2026-04-15 06:59 47.32095 5.61645 36224 ft 395 kts 334°
2026-04-15 07:00 47.36961 5.57855 36220 ft 396 kts 334°
2026-04-15 07:00 47.41831 5.54053 36225 ft 396 kts 334°
2026-04-15 07:01 47.46708 5.50239 36238 ft 396 kts 334°
2026-04-15 07:01 47.51447 5.46052 36231 ft 399 kts 324°
2026-04-15 07:02 47.55325 5.40221 36229 ft 403 kts 310°
2026-04-15 07:02 47.58652 5.33498 36235 ft 404 kts 309°
2026-04-15 07:03 47.61957 5.26753 36236 ft 404 kts 309°
2026-04-15 07:03 47.65283 5.19999 36234 ft 405 kts 309°
2026-04-15 07:04 47.68611 5.13255 36234 ft 404 kts 309°
2026-04-15 07:04 47.71913 5.06559 36235 ft 405 kts 309°
2026-04-15 07:05 47.75253 4.99769 36232 ft 404 kts 308°
2026-04-15 07:05 47.78546 4.93057 36239 ft 404 kts 308°
2026-04-15 07:06 47.81858 4.86291 36243 ft 404 kts 308°
2026-04-15 07:06 47.85168 4.79513 36245 ft 404 kts 308°
2026-04-15 07:07 47.88473 4.72725 36246 ft 405 kts 308°
2026-04-15 07:07 47.91777 4.65926 36246 ft 405 kts 308°
2026-04-15 07:08 47.95078 4.59113 36246 ft 405 kts 307°
2026-04-15 07:08 47.98370 4.52303 36244 ft 405 kts 307°
2026-04-15 07:09 48.01663 4.45474 36248 ft 405 kts 307°
2026-04-15 07:09 48.04931 4.38681 36249 ft 405 kts 307°
2026-04-15 07:10 48.08219 4.31827 36246 ft 405 kts 307°
2026-04-15 07:10 48.11502 4.24966 36234 ft 406 kts 307°
2026-04-15 07:11 48.14785 4.18089 36237 ft 406 kts 307°
2026-04-15 07:11 48.18067 4.11194 36241 ft 406 kts 307°
2026-04-15 07:12 48.21346 4.04290 36239 ft 406 kts 307°
2026-04-15 07:12 48.24604 3.97421 36239 ft 406 kts 307°
2026-04-15 07:13 48.28317 3.91044 36243 ft 405 kts 314°
2026-04-15 07:13 48.32251 3.84970 36238 ft 405 kts 315°
2026-04-15 07:14 48.36176 3.78868 36236 ft 405 kts 314°
2026-04-15 07:14 48.40073 3.72729 36245 ft 406 kts 314°
2026-04-15 07:15 48.43933 3.66607 36241 ft 406 kts 314°
2026-04-15 07:15 48.47819 3.60423 36239 ft 406 kts 314°
2026-04-15 07:16 48.51695 3.54242 36242 ft 405 kts 314°
2026-04-15 07:16 48.55567 3.48053 36237 ft 405 kts 314°
2026-04-15 07:17 48.59436 3.41854 36230 ft 405 kts 313°
2026-04-15 07:17 48.63297 3.35652 36240 ft 405 kts 313°
2026-04-15 07:18 48.67158 3.29436 36239 ft 405 kts 313°
2026-04-15 07:18 48.70994 3.23246 36236 ft 405 kts 313°
2026-04-15 07:19 48.74852 3.17005 36237 ft 406 kts 313°
2026-04-15 07:19 48.78709 3.10751 36231 ft 406 kts 313°
2026-04-15 07:20 48.82560 3.04492 36222 ft 406 kts 312°
2026-04-15 07:20 48.86946 2.99075 36232 ft 409 kts 328°
2026-04-15 07:21 48.91890 2.94803 36224 ft 410 kts 328°
2026-04-15 07:21 48.96851 2.90535 36228 ft 410 kts 328°
2026-04-15 07:22 49.01803 2.86222 36228 ft 410 kts 328°
2026-04-15 07:22 49.06755 2.81873 36232 ft 411 kts 328°
2026-04-15 07:23 49.11680 2.77533 36216 ft 411 kts 328°
2026-04-15 07:23 49.16646 2.73147 36216 ft 411 kts 328°
2026-04-15 07:24 49.21604 2.68756 36218 ft 411 kts 327°
2026-04-15 07:24 49.26559 2.64361 36202 ft 412 kts 327°
2026-04-15 07:25 49.31512 2.59955 36218 ft 412 kts 327°
2026-04-15 07:25 49.36476 2.55528 36208 ft 413 kts 327°
2026-04-15 07:26 49.41439 2.51092 36201 ft 413 kts 327°
2026-04-15 07:26 49.46377 2.46670 36193 ft 413 kts 327°
2026-04-15 07:27 49.51204 2.41900 36198 ft 410 kts 317°
2026-04-15 07:27 49.55053 2.35478 36201 ft 407 kts 307°
2026-04-15 07:28 49.58596 2.28657 36185 ft 408 kts 307°
2026-04-15 07:28 49.62147 2.21837 36181 ft 408 kts 306°
2026-04-15 07:29 49.65116 2.16163 36190 ft 409 kts 306°
2026-04-15 07:29 49.69279 2.08213 36183 ft 410 kts 306°
2026-04-15 07:30 49.72863 2.01353 36184 ft 411 kts 306°
2026-04-15 07:30 49.76457 1.94457 36182 ft 411 kts 306°
2026-04-15 07:31 49.79440 1.88718 36177 ft 412 kts 306°
2026-04-15 07:31 49.83029 1.81797 36176 ft 412 kts 306°
2026-04-15 07:32 49.86616 1.74861 36173 ft 412 kts 305°
2026-04-15 07:32 49.90197 1.67917 36169 ft 413 kts 305°
2026-04-15 07:33 49.93782 1.60948 36166 ft 413 kts 305°
2026-04-15 07:33 49.97358 1.53982 36174 ft 413 kts 305°
2026-04-15 07:34 50.01432 1.47601 36172 ft 417 kts 315°
2026-04-15 07:34 50.05811 1.41743 36157 ft 417 kts 315°
2026-04-15 07:35 50.10203 1.35833 36157 ft 417 kts 314°
2026-04-15 07:35 50.14574 1.29886 36128 ft 415 kts 314°
2026-04-15 07:36 50.16739 1.26926 35804 ft 412 kts 314°
2026-04-15 07:36 50.18875 1.24003 35483 ft 405 kts 314°
2026-04-15 07:36 50.20984 1.21111 35106 ft 402 kts 314°
2026-04-15 07:36 50.23077 1.18236 34732 ft 399 kts 314°
2026-04-15 07:37 50.25149 1.15385 34357 ft 396 kts 314°
2026-04-15 07:37 50.27208 1.12550 33965 ft 393 kts 314°
2026-04-15 07:37 50.29253 1.09729 33548 ft 391 kts 314°
2026-04-15 07:37 50.31260 1.06960 33166 ft 388 kts 314°
2026-04-15 07:38 50.33276 1.04174 32793 ft 385 kts 314°
2026-04-15 07:38 50.35274 1.01409 32422 ft 382 kts 314°
2026-04-15 07:38 50.37257 0.98662 32067 ft 378 kts 314°
2026-04-15 07:38 50.39219 0.95941 31713 ft 376 kts 314°
2026-04-15 07:39 50.41182 0.93216 31373 ft 379 kts 314°
2026-04-15 07:39 50.43171 0.90448 31032 ft 386 kts 313°
2026-04-15 07:39 50.45189 0.87653 30646 ft 386 kts 314°
2026-04-15 07:39 50.47232 0.84928 30288 ft 384 kts 315°
2026-04-15 07:40 50.49278 0.82245 29880 ft 382 kts 315°
2026-04-15 07:40 50.51311 0.79571 29485 ft 378 kts 315°
2026-04-15 07:40 50.53318 0.76914 29121 ft 374 kts 315°
2026-04-15 07:40 50.55274 0.74315 28751 ft 371 kts 315°
2026-04-15 07:41 50.57236 0.71702 28400 ft 368 kts 315°
2026-04-15 07:41 50.59180 0.69109 28039 ft 365 kts 315°
2026-04-15 07:41 50.61113 0.66526 27679 ft 364 kts 315°
2026-04-15 07:41 50.63038 0.63951 27316 ft 362 kts 315°
2026-04-15 07:42 50.64957 0.61381 26991 ft 362 kts 314°
2026-04-15 07:42 50.66884 0.58796 26639 ft 365 kts 315°
2026-04-15 07:42 50.68819 0.56198 26276 ft 363 kts 315°
2026-04-15 07:42 50.70738 0.53622 25913 ft 361 kts 315°
2026-04-15 07:43 50.72642 0.51063 25572 ft 359 kts 315°
2026-04-15 07:43 50.74539 0.48511 25223 ft 357 kts 315°
2026-04-15 07:43 50.76418 0.45981 24901 ft 354 kts 314°
2026-04-15 07:43 50.78291 0.43457 24560 ft 353 kts 314°
2026-04-15 07:44 50.80157 0.40935 24221 ft 352 kts 314°
2026-04-15 07:44 50.82017 0.38420 23881 ft 351 kts 314°
2026-04-15 07:44 50.83870 0.35913 23471 ft 350 kts 314°
2026-04-15 07:44 50.85711 0.33419 23070 ft 348 kts 314°
2026-04-15 07:45 50.87544 0.30933 22684 ft 346 kts 314°
2026-04-15 07:45 50.89368 0.28458 22315 ft 344 kts 314°
2026-04-15 07:45 50.91161 0.26021 21960 ft 342 kts 314°
2026-04-15 07:45 50.92961 0.23571 21601 ft 340 kts 314°
2026-04-15 07:46 50.94746 0.21139 21255 ft 337 kts 314°
2026-04-15 07:46 50.96520 0.18721 20914 ft 335 kts 314°
2026-04-15 07:46 50.98284 0.16313 20578 ft 333 kts 314°
2026-04-15 07:46 51.00038 0.13917 20244 ft 332 kts 314°
2026-04-15 07:47 51.01786 0.11538 19929 ft 330 kts 315°
2026-04-15 07:47 51.03612 0.09341 19715 ft 329 kts 319°
2026-04-15 07:47 51.05494 0.07269 19498 ft 329 kts 321°
2026-04-15 07:47 51.07401 0.05213 19287 ft 332 kts 321°
2026-04-15 07:48 51.09319 0.03138 19059 ft 335 kts 321°
2026-04-15 07:48 51.11246 0.01039 18842 ft 335 kts 320°
2026-04-15 07:48 51.13169 -0.01069 18726 ft 334 kts 320°
2026-04-15 07:48 51.15079 -0.03173 18493 ft 333 kts 320°
2026-04-15 07:49 51.16957 -0.05252 18261 ft 332 kts 320°
2026-04-15 07:49 51.18855 -0.07358 18008 ft 331 kts 320°
2026-04-15 07:49 51.20743 -0.09458 17768 ft 330 kts 320°
2026-04-15 07:49 51.22624 -0.11552 17540 ft 329 kts 320°
2026-04-15 07:50 51.24500 -0.13644 17311 ft 328 kts 320°
2026-04-15 07:50 51.26367 -0.15728 17084 ft 327 kts 320°
2026-04-15 07:50 51.28227 -0.17806 16868 ft 325 kts 320°
2026-04-15 07:50 51.30077 -0.19877 16647 ft 324 kts 319°
2026-04-15 07:51 51.31923 -0.21944 16430 ft 323 kts 319°
2026-04-15 07:51 51.33756 -0.23999 16222 ft 322 kts 319°
2026-04-15 07:51 51.35591 -0.26058 16009 ft 321 kts 319°
2026-04-15 07:51 51.37418 -0.28110 15785 ft 321 kts 319°
2026-04-15 07:52 51.39244 -0.30162 15572 ft 320 kts 319°
2026-04-15 07:52 51.41071 -0.32203 15348 ft 321 kts 322°
2026-04-15 07:52 51.43134 -0.33540 15100 ft 332 kts 348°
2026-04-15 07:52 51.45448 -0.33332 14893 ft 338 kts 14°
2026-04-15 07:53 51.47618 -0.31907 14693 ft 336 kts 23°
2026-04-15 07:53 51.49713 -0.30286 14426 ft 333 kts 24°
2026-04-15 07:53 51.51781 -0.28647 14195 ft 330 kts 24°
2026-04-15 07:53 51.53834 -0.27025 13971 ft 328 kts 24°
2026-04-15 07:54 51.55879 -0.25424 13736 ft 326 kts 24°
2026-04-15 07:54 51.57912 -0.23846 13502 ft 324 kts 24°
2026-04-15 07:54 51.59939 -0.22279 13220 ft 322 kts 24°
2026-04-15 07:54 51.61953 -0.20726 12993 ft 320 kts 24°
2026-04-15 07:55 51.63967 -0.19175 12775 ft 321 kts 24°
2026-04-15 07:55 51.65981 -0.17622 12559 ft 321 kts 24°
2026-04-15 07:55 51.70022 -0.14505 12124 ft 323 kts 24°
2026-04-15 07:56 51.72052 -0.12937 11910 ft 323 kts 24°
2026-04-15 07:56 51.74089 -0.11362 11697 ft 324 kts 25°
2026-04-15 07:56 51.76138 -0.09806 11490 ft 325 kts 23°
2026-04-15 07:56 51.78214 -0.08340 11250 ft 325 kts 22°
2026-04-15 07:57 51.80258 -0.06930 11026 ft 321 kts 22°
2026-04-15 07:57 51.82299 -0.05520 10826 ft 317 kts 22°
2026-04-15 07:57 51.84317 -0.04119 10609 ft 314 kts 22°
2026-04-15 07:57 51.86315 -0.02725 10422 ft 311 kts 23°
2026-04-15 07:58 51.88296 -0.01337 10234 ft 309 kts 23°
2026-04-15 07:58 51.90269 0.00048 10010 ft 307 kts 23°
2026-04-15 07:58 51.92226 0.01425 9796 ft 306 kts 23°
2026-04-15 07:58 51.94173 0.02797 9577 ft 303 kts 23°
2026-04-15 07:59 51.96091 0.04150 9367 ft 299 kts 23°
2026-04-15 07:59 51.97995 0.05494 9167 ft 296 kts 22°
2026-04-15 07:59 51.99955 0.06370 8934 ft 291 kts
2026-04-15 07:59 52.01931 0.06425 8793 ft 284 kts 358°
2026-04-15 08:00 52.03904 0.06494 8564 ft 282 kts 359°
2026-04-15 08:00 52.05859 0.06590 8379 ft 279 kts 359°
2026-04-15 08:00 52.07788 0.06694 8188 ft 276 kts 359°
2026-04-15 08:00 52.09699 0.06778 7999 ft 272 kts 354°
2026-04-15 08:01 52.11430 0.05874 7796 ft 256 kts 315°
2026-04-15 08:01 52.12361 0.03624 7651 ft 233 kts 275°
2026-04-15 08:01 52.12391 0.01067 7535 ft 224 kts 252°
2026-04-15 08:01 52.11751 -0.01188 7366 ft 220 kts 227°
2026-04-15 08:02 52.10565 -0.02729 7216 ft 221 kts 205°
2026-04-15 08:02 52.09073 -0.03395 7071 ft 225 kts 191°
2026-04-15 08:02 52.07519 -0.03804 6909 ft 226 kts 191°
2026-04-15 08:02 52.05997 -0.04201 6742 ft 223 kts 191°
2026-04-15 08:03 52.04466 -0.04398 6519 ft 223 kts 175°
2026-04-15 08:03 52.02992 -0.03627 6391 ft 224 kts 159°
2026-04-15 08:03 52.01644 -0.02299 6134 ft 230 kts 155°
2026-04-15 08:03 52.00260 -0.00944 5834 ft 235 kts 142°
2026-04-15 08:04 51.99492 0.01408 5706 ft 242 kts 109°
2026-04-15 08:04 51.99073 0.04058 5474 ft 244 kts 110°
2026-04-15 08:04 51.98986 0.06829 5211 ft 255 kts 76°
2026-04-15 08:04 51.99744 0.09420 5029 ft 254 kts 66°
2026-04-15 08:05 52.00483 0.12061 4778 ft 260 kts 69°
2026-04-15 08:05 52.01202 0.14787 4516 ft 264 kts 69°
2026-04-15 08:05 52.01917 0.17533 4254 ft 264 kts 70°
2026-04-15 08:05 52.02634 0.20295 3998 ft 265 kts 70°
2026-04-15 08:06 52.03349 0.23063 3732 ft 266 kts 70°
2026-04-15 08:06 52.04063 0.25854 3438 ft 269 kts 70°
2026-04-15 08:06 52.04786 0.28659 3183 ft 268 kts 70°
2026-04-15 08:06 52.05508 0.31436 2960 ft 262 kts 69°
2026-04-15 08:07 52.06227 0.34084 2886 ft 251 kts 73°
2026-04-15 08:07 52.06374 0.36699 2827 ft 225 kts 110°
2026-04-15 08:07 52.05746 0.38851 2787 ft 201 kts 129°
2026-04-15 08:07 52.04896 0.40497 2739 ft 181 kts 141°
2026-04-15 08:08 52.03957 0.41672 2671 ft 163 kts 160°
2026-04-15 08:08 52.02887 0.42176 2602 ft 160 kts 178°
2026-04-15 08:08 52.01797 0.42098 2526 ft 154 kts 194°
2026-04-15 08:08 52.00795 0.41550 2482 ft 150 kts 210°
2026-04-15 08:09 51.99958 0.40543 2513 ft 151 kts 217°
2026-04-15 08:09 51.99152 0.39435 2513 ft 153 kts 220°
2026-04-15 08:09 51.98372 0.38284 2492 ft 153 kts 221°
2026-04-15 08:09 51.97593 0.37119 2483 ft 151 kts 221°
2026-04-15 08:10 51.96846 0.35998 2332 ft 142 kts 221°
2026-04-15 08:10 51.96123 0.34913 2153 ft 143 kts 220°
2026-04-15 08:10 51.95409 0.33843 1952 ft 138 kts 219°
2026-04-15 08:10 51.94722 0.32812 1780 ft 132 kts 219°
2026-04-15 08:11 51.94052 0.31808 1619 ft 131 kts 219°
2026-04-15 08:11 51.93381 0.30794 1413 ft 135 kts 219°
2026-04-15 08:11 51.92694 0.29766 1293 ft 131 kts 218°
2026-04-15 08:11 51.92027 0.28780 1063 ft 133 kts 220°
2026-04-15 08:12 51.91356 0.27735 904 ft 132 kts 217°
2026-04-15 08:12 51.90668 0.26734 682 ft 136 kts 218°
2026-04-15 08:12 51.89970 0.25692 540 ft 135 kts 222°
2026-04-15 08:12 51.89288 0.24655 360 ft 134 kts 218°
2026-04-15 08:13 51.88653 0.23712 335 ft 108 kts 222°
2026-04-15 08:13 51.88216 0.23054 333 ft 63 kts 223°
2026-04-15 08:13 51.88008 0.22740 331 ft 18 kts 222°
2026-04-15 08:13 51.87940 0.22684 334 ft 11 kts 169°
2026-04-15 08:14 51.87887 0.22766 336 ft 10 kts 132°
2026-04-15 08:14 51.87837 0.22849 335 ft 10 kts 132°
2026-04-15 08:14 51.87808 0.22925 335 ft 6 kts 77°
2026-04-15 08:14 51.87829 0.22959 335 ft 6 kts 42°
2026-04-15 08:15 51.87868 0.23018 336 ft 9 kts 43°
2026-04-15 08:15 51.87928 0.23108 334 ft 14 kts 41°
2026-04-15 08:15 51.88012 0.23233 335 ft 19 kts 44°
2026-04-15 08:15 51.88116 0.23391 336 ft 22 kts 43°
2026-04-15 08:16 51.88270 0.23618 334 ft 22 kts 42°
2026-04-15 08:16 51.88381 0.23788 336 ft 22 kts 45°
2026-04-15 08:16 51.88455 0.23899 339 ft 21 kts 42°
2026-04-15 08:16 51.88562 0.24057 339 ft 21 kts 42°
2026-04-15 08:17 51.88665 0.24213 342 ft 20 kts 43°
2026-04-15 08:17 51.88766 0.24362 346 ft 19 kts 43°
2026-04-15 08:17 51.88863 0.24509 351 ft 19 kts 44°
2026-04-15 08:17 51.88957 0.24650 345 ft 18 kts 43°
2026-04-15 08:18 51.89047 0.24786 347 ft 17 kts 43°
2026-04-15 08:18 51.89135 0.24918 342 ft 17 kts 42°
2026-04-15 08:18 51.89220 0.25059 348 ft 18 kts 56°
2026-04-15 08:18 51.89288 0.25219 344 ft 17 kts 43°
2026-04-15 08:19 51.89372 0.25343 346 ft 13 kts 43°
2026-04-15 08:19 51.89422 0.25448 350 ft 12 kts 89°
2026-04-15 08:19 51.89369 0.25544 343 ft 12 kts 149°
2026-04-15 08:19 51.89315 0.25614 345 ft 7 kts 134°
2026-04-15 08:20 51.89291 0.25653 343 ft 3 kts 134°
2026-04-15 08:20 51.89271 0.25652 342 ft 4 kts 211°
2026-04-15 08:20 51.89253 0.25628 342 ft 0 kts 221°